User: anonymous   Login
Location: Unspecified
(0.0000°N, 0.0000°E)
Time: 06:53:00
(UTC+00:00)
Language:

STARLINK-34225 - Orbit

View from above orbital plane
View from above orbital plane
View from above satellite
View from above satellite

Ground track
Ground track

The orbit is defined by the following mean orbital elements,

1 64414U          26145.53962916 +.00000000 +00000-0 +25425-3 0 00002
2 64414  70.0006 240.8850 0003484 268.9723  91.1037 14.98335763    07
Epoch (UTC): 25 May 2026 12:57:03
Eccentricity: 0.0003484
inclination: 70.0006°
perigee height: 570 km
apogee height: 574 km
right ascension of ascending node: 240.8850°
argument of perigee: 268.9723°
revolutions per day: 14.98335763
mean anomaly at epoch: 91.1037°

The dashed part of the orbit path shows where the satellite is in the earth's shadow,  

DLR